Theta_e
325 327 329 330 330 330 331 331 331 331 330 330 331 331 331 331 331 332 332 331 332 332 332 332 332 332 332 331 332 332 332 332 332 332 331 331 331 331 331 330 330 330 330 329 328 328 327 326 326 326 326 326 327 326 326 325 325 324 323 323 323 324 324 325 326 326 326 327 328 330 332 332 331 330 330 329 329 328 328 328 328 328 329 329 329 330
324 325 327 328 329 330 330 331 331 330 330 329 329 330 330 330 330 330 331 331 331 331 331 331 331 331 331 331 331 331 331 331 331 331 331 330 330 330 330 330 330 330 329 329 329 328 328 327 327 327 327 327 327 327 326 326 325 324 324 323 324 324 324 325 325 326 326 326 327 329 330 330 330 330 331 331 330 330 329 328 328 328 328 328 329 329
323 323 324 325 327 329 330 330 330 330 329 328 327 327 328 328 329 329 329 329 330 330 330 330 331 331 331 331 331 331 330 330 330 330 330 330 329 329 329 329 329 329 329 329 329 328 328 328 328 327 327 327 327 327 327 326 326 325 324 324 324 325 325 325 325 326 326 327 327 328 328 328 329 330 331 331 331 331 331 330 330 329 329 329 329 329
322 322 321 321 322 324 326 327 328 327 327 326 325 325 325 326 327 327 327 328 328 329 329 330 330 330 330 330 330 330 330 330 330 330 330 329 329 329 328 328 328 328 328 328 328 328 328 328 328 328 328 328 327 327 327 327 326 326 325 325 325 326 326 326 326 326 326 327 327 327 327 328 328 329 330 330 331 331 331 330 330 330 330 329 329 329
318 317 317 318 318 318 319 321 322 323 323 323 323 322 323 324 324 324 324 325 326 326 327 328 328 329 329 329 330 330 330 330 329 329 329 329 329 328 328 328 327 327 327 327 327 327 327 327 327 327 327 327 327 327 327 327 326 326 326 326 326 326 326 326 327 327 327 327 327 327 327 327 328 328 329 329 329 329 329 329 329 329 328 328 328 328
311 311 313 315 315 314 314 314 315 317 318 318 319 319 320 320 320 320 320 320 321 322 323 324 325 326 326 327 327 328 327 328 328 328 328 328 327 327 327 327 327 326 326 326 326 326 326 326 326 326 326 326 326 326 326 326 326 326 326 326 326 326 327 327 327 327 327 327 327 327 327 327 327 328 328 328 328 328 328 327 327 327 326 327 326 327
307 307 310 311 311 311 310 310 310 311 312 313 313 314 315 315 315 315 315 315 316 317 318 319 320 321 322 323 323 323 324 324 324 325 325 325 325 325 325 324 325 325 325 325 325 325 325 325 325 326 326 326 326 326 326 326 326 326 326 326 327 327 327 327 327 327 327 327 327 327 327 327 327 327 327 327 327 327 327 326 326 325 325 325 325 325
304 305 307 307 308 308 308 307 307 307 308 309 309 309 310 310 310 310 310 311 312 312 313 314 315 317 317 317 318 319 320 320 321 321 321 321 321 321 321 321 321 321 322 322 322 323 323 324 324 324 324 325 325 325 325 326 326 326 326 326 326 327 327 327 327 327 327 327 327 327 327 327 327 327 327 327 327 326 326 326 325 325 324 324 324 324
303 303 304 304 305 305 304 304 304 305 306 307 307 307 306 306 306 307 307 308 308 308 309 310 311 311 312 313 313 314 316 317 317 318 318 318 318 318 317 317 317 318 318 318 319 320 320 321 321 322 322 323 323 324 324 324 325 325 325 326 326 326 326 326 326 326 326 327 327 327 326 326 326 326 326 326 326 326 325 325 325 324 324 324 323 323
303 302 301 302 303 303 302 302 302 303 304 305 305 305 305 304 304 304 304 304 304 305 306 307 307 307 307 308 309 311 312 313 313 314 314 314 314 314 314 314 314 315 315 315 316 316 317 317 318 319 319 320 321 321 322 323 323 323 324 324 324 324 324 325 325 325 325 325 325 325 325 325 325 324 324 324 324 324 324 324 324 324 324 323 323 323
302 301 300 300 301 302 302 301 300 301 302 303 303 304 304 304 303 302 301 300 300 301 302 303 303 303 303 304 305 307 308 308 309 309 309 310 310 310 311 311 312 312 312 312 312 313 314 315 315 316 317 317 318 319 320 320 321 321 322 322 322 322 322 322 322 322 322 323 323 322 322 322 322 322 322 322 322 322 322 322 323 323 323 323 323 324
301 301 300 300 300 301 301 300 300 301 302 302 302 302 302 302 303 302 300 298 297 298 298 299 300 300 300 301 302 303 304 305 305 305 306 306 307 307 308 308 308 309 309 309 310 310 311 312 313 313 314 315 315 316 317 317 318 318 319 319 319 319 319 320 320 320 320 320 320 320 320 321 321 321 321 321 321 321 321 321 321 321 321 322 323 323
301 301 300 300 300 300 300 301 301 302 302 302 302 301 300 300 301 300 298 297 296 296 297 297 297 298 299 299 300 301 302 302 302 303 304 304 304 305 305 306 306 306 307 307 307 307 308 309 310 311 311 312 313 313 314 314 315 315 315 316 316 317 317 317 317 318 318 318 318 318 319 319 319 319 319 319 319 319 319 319 320 320 320 321 321 320
301 301 301 300 300 300 300 301 302 302 302 302 302 300 299 299 299 298 297 296 296 296 297 297 297 297 298 298 299 300 300 301 302 302 302 302 302 303 304 304 304 304 305 305 305 305 305 306 307 308 309 310 310 311 312 312 312 312 313 313 313 314 314 314 315 315 315 316 316 316 317 317 317 317 317 317 317 317 317 317 318 318 318 318 317 315
301 301 301 300 300 300 301 302 302 303 302 302 301 300 300 299 299 299 297 296 296 297 298 297 297 297 297 298 298 299 300 301 301 301 300 300 300 302 303 302 302 303 303 303 302 302 303 304 305 305 306 307 307 308 309 309 310 310 310 310 310 311 311 311 311 312 312 313 314 314 314 315 315 315 315 315 315 315 315 315 315 315 313 313 312 311
302 302 301 300 300 300 301 302 302 302 301 301 301 301 300 300 300 299 298 297 297 298 298 298 297 296 296 297 298 299 299 300 299 299 298 298 299 300 302 302 301 301 301 301 300 301 301 302 302 302 303 303 304 305 306 306 307 307 307 308 308 308 308 308 308 309 309 310 310 311 311 311 311 312 312 312 312 311 311 311 310 310 309 308 308 307
302 302 302 301 301 301 301 301 301 301 300 300 300 300 300 300 300 299 299 298 298 298 299 299 298 297 296 296 297 298 299 298 297 297 297 296 297 299 301 301 300 299 299 299 299 299 300 300 301 301 301 302 302 303 303 304 304 305 305 305 306 306 306 306 306 307 307 307 308 308 308 308 308 308 308 309 308 308 308 308 307 307 307 307 307 307
303 303 302 302 301 301 301 301 300 300 300 299 299 299 300 299 299 299 299 299 299 299 300 300 299 298 297 295 296 297 298 297 296 295 295 294 295 296 298 299 299 298 298 298 298 298 299 299 299 300 300 301 301 302 302 303 303 303 304 304 304 305 305 305 305 306 306 306 306 306 307 307 307 307 308 308 308 308 308 308 308 308 308 308 308 308
303 303 302 302 301 301 300 300 300 299 299 299 299 299 299 299 299 299 299 299 300 300 300 300 299 298 296 295 295 296 297 297 295 294 293 293 293 295 296 297 297 297 297 297 297 297 298 298 298 299 299 300 300 301 301 302 302 302 303 303 303 304 304 304 304 305 305 305 305 305 306 306 306 307 307 307 307 307 308 308 308 308 308 308 308 308
303 302 302 301 301 301 300 300 299 300 300 300 300 299 298 298 298 299 299 300 300 300 300 299 297 296 295 294 295 295 296 296 295 294 293 292 292 293 295 296 296 296 296 296 296 297 297 297 298 298 299 299 299 300 300 301 301 301 302 302 302 302 303 303 303 303 303 303 303 304 304 304 304 305 305 305 305 306 306 306 306 306 306 306 306 306
302 302 301 301 301 300 300 299 299 300 301 301 300 299 299 299 299 299 300 300 300 299 298 297 295 294 294 293 294 295 296 296 295 293 292 292 292 293 294 295 295 295 295 295 296 296 297 297 297 297 298 298 298 299 299 299 300 300 300 301 301 301 301 301 301 301 301 301 301 301 301 302 302 302 302 302 303 303 303 303 303 303 303 303 304 304
302 301 301 301 300 300 299 299 299 300 301 301 300 299 299 299 299 300 300 299 298 297 296 295 294 293 293 293 294 294 296 296 295 294 293 292 291 292 293 294 295 295 294 295 295 296 296 296 296 296 297 297 297 298 298 298 298 299 299 299 299 299 300 300 300 300 300 300 300 300 300 300 300 300 300 300 300 300 300 301 301 301 301 301 301 301
302 301 301 301 300 300 300 299 299 300 300 300 300 300 299 299 300 300 299 298 296 295 293 292 292 292 293 293 294 294 296 296 296 294 293 292 291 291 292 294 294 293 293 294 295 295 295 295 296 296 296 296 296 296 297 297 297 297 298 298 298 298 298 298 298 298 298 298 298 298 298 298 298 298 298 298 298 298 299 299 299 299 299 299 299 300
301 301 301 301 301 300 300 299 299 300 300 300 300 300 300 300 299 298 297 297 295 294 293 292 293 293 293 294 294 294 295 296 296 295 293 291 290 291 292 293 293 292 292 293 294 294 295 295 295 295 295 295 295 296 296 296 296 296 296 296 296 296 296 296 296 296 297 297 297 297 297 297 297 297 297 297 297 297 298 298 298 298 298 298 298 298
301 301 300 301 300 300 300 300 300 300 300 300 300 299 299 299 298 297 297 296 295 294 294 294 293 293 293 293 294 294 295 296 296 295 292 291 290 291 291 292 292 291 291 292 293 293 294 294 294 294 294 295 295 295 295 295 295 295 295 295 295 295 295 295 295 295 295 295 296 296 296 296 296 296 296 296 296 296 297 297 297 297 297 297 297 297
300 300 300 300 300 300 300 300 300 300 300 300 300 299 299 298 298 297 296 295 295 295 295 294 293 292 292 292 292 293 294 295 296 295 293 291 290 290 291 291 291 291 291 291 292 293 293 293 293 293 294 294 294 294 295 295 295 295 295 295 295 295 295 295 295 295 295 295 295 295 295 295 295 295 295 295 296 296 296 296 296 296 296 296 297 297
299 299 299 299 299 299 299 299 299 299 300 300 299 299 299 299 298 296 295 295 295 295 295 294 293 293 292 292 291 291 293 294 295 294 293 292 290 290 290 291 291 291 291 291 291 292 292 292 292 293 293 293 293 294 294 294 294 294 294 294 294 295 295 294 294 294 294 294 294 294 294 294 294 294 294 295 295 295 295 295 295 295 295 295 295 295
298 298 298 298 298 298 298 299 299 299 299 299 299 299 299 299 297 296 295 295 295 295 295 294 294 293 293 291 291 291 292 293 293 293 293 292 291 290 290 290 290 290 290 290 290 291 291 291 292 292 292 293 293 293 293 294 294 294 294 294 295 295 295 295 294 294 294 294 294 293 293 293 294 294 294 294 294 294 294 294 294 294 294 294 294 294
297 297 297 297 297 297 298 298 298 298 298 298 298 298 298 298 297 296 296 296 296 296 295 295 295 293 292 291 291 291 291 292 292 293 294 292 290 289 290 290 290 290 290 290 290 290 290 291 291 291 292 292 292 293 293 293 294 294 294 294 294 294 294 294 294 294 293 293 293 293 293 293 293 293 293 293 293 293 293 293 293 293 293 293 293 293
296 296 296 296 296 296 296 297 297 297 297 297 297 297 297 298 297 297 297 297 296 296 296 295 294 293 292 291 291 291 291 291 292 293 293 292 290 289 290 290 290 291 291 290 290 289 289 289 290 291 291 292 292 292 293 293 293 293 293 294 294 293 293 293 293 293 293 293 292 292 292 292 292 292 292 292 292 292 292 292 292 292 292 292 292 292
295 295 295 295 295 296 296 296 296 296 296 296 297 297 297 297 297 297 297 297 297 296 295 294 293 293 293 293 293 292 291 291 292 293 293 291 290 289 290 290 291 291 292 292 291 290 289 288 289 289 290 291 292 292 292 292 293 293 293 293 293 293 293 292 292 292 292 292 292 292 291 291 291 291 291 291 291 291 291 291 291 291 292 292 291 291
294 294 294 295 295 295 295 295 295 296 296 296 297 297 297 297 297 297 297 297 297 296 295 294 294 294 295 295 294 293 292 291 292 293 294 292 290 290 290 290 291 291 292 292 292 291 289 288 288 289 290 291 291 291 292 292 292 292 292 292 292 292 292 292 292 292 291 291 291 291 291 291 290 290 290 290 290 290 290 290 290 291 291 291 291 290
293 293 293 294 294 294 295 295 295 295 296 296 296 297 297 297 297 297 297 297 297 296 296 295 295 295 295 294 292 291 291 291 292 293 294 293 291 290 290 290 291 291 291 292 292 291 289 288 288 288 289 290 291 291 291 292 292 292 292 292 292 291 291 291 291 291 291 291 290 290 290 290 289 289 289 289 289 289 289 289 289 290 290 290 290 290
292 292 292 292 293 293 293 294 294 294 295 295 295 296 296 297 297 297 297 297 297 296 296 296 295 295 293 292 291 290 290 291 291 292 294 294 292 290 290 290 291 291 291 291 290 289 288 288 288 288 288 289 290 291 291 291 291 291 291 291 291 291 291 291 291 290 290 290 290 290 289 289 289 289 288 288 288 288 288 288 288 288 289 289 289 289
291 291 291 291 291 291 292 292 293 293 293 294 294 295 295 296 296 296 296 296 296 296 296 296 296 296 294 293 291 290 290 291 291 292 293 294 293 291 290 290 291 291 291 290 289 289 288 288 288 288 288 288 289 290 290 291 291 291 291 291 291 290 290 290 290 290 290 289 289 289 289 289 289 288 288 288 288 288 287 287 287 288 288 288 288 288
290 290 290 290 290 290 290 290 291 291 292 292 293 293 294 294 295 295 295 295 295 295 295 295 295 296 296 294 292 291 290 291 291 292 293 294 294 292 291 290 291 292 291 290 290 289 289 289 289 289 288 288 288 288 289 290 290 290 290 290 290 290 290 290 290 290 289 289 289 289 289 288 288 288 288 287 287 287 287 287 287 287 287 287 287 287
289 289 289 289 289 289 289 289 289 290 290 291 291 292 292 293 293 293 293 293 294 294 294 294 294 294 294 294 293 292 291 291 291 292 292 293 294 293 291 291 291 292 292 291 290 290 290 290 289 289 289 288 288 288 288 289 289 290 290 290 289 289 289 289 289 289 289 289 288 288 288 288 288 287 287 287 287 287 287 287 287 287 287 287 287 287
289 288 288 288 288 288 288 288 288 288 289 289 290 290 291 291 291 292 292 292 292 293 293 293 292 292 292 292 292 291 291 291 291 292 292 292 293 293 292 291 291 292 293 292 291 291 290 290 290 289 289 288 288 288 288 288 289 289 289 289 289 289 289 289 288 288 288 288 287 287 287 287 287 287 287 287 287 287 287 287 287 287 287 287 287 286
287 287 287 287 287 287 287 287 287 288 288 288 288 289 290 290 290 291 291 291 291 292 292 291 291 290 290 290 290 290 290 291 291 291 292 292 292 293 292 292 291 292 293 293 293 292 291 291 290 289 288 288 288 288 288 288 288 288 288 288 288 288 288 288 288 288 288 287 287 287 287 286 286 286 286 286 286 286 286 286 286 286 286 286 286 286
286 286 286 286 287 287 287 287 287 287 287 288 288 288 289 289 289 289 289 290 290 290 290 289 289 289 289 289 289 290 290 291 291 291 291 291 292 292 292 292 291 292 292 292 292 292 292 291 290 289 289 288 287 287 287 288 288 288 288 287 287 287 287 287 287 287 287 287 286 286 286 286 286 286 286 286 286 286 286 286 285 285 285 285 285 285
286 286 286 286 286 287 287 287 287 287 287 288 288 288 288 288 288 288 288 288 288 288 288 288 288 288 288 288 289 289 290 290 290 291 291 291 291 291 291 291 291 291 291 291 291 292 291 291 290 289 289 288 288 288 287 288 288 288 288 287 287 287 286 286 286 286 286 286 286 286 286 286 285 285 285 285 285 285 285 285 285 285 285 285 285 285
286 285 285 286 286 287 287 287 287 287 288 288 287 287 287 287 287 287 287 287 287 287 287 287 287 287 287 287 288 288 289 289 290 290 290 290 291 291 291 291 291 291 291 291 291 291 291 290 290 289 289 288 288 287 287 287 287 287 287 287 287 286 286 286 286 286 286 285 285 285 285 285 285 285 285 285 285 285 285 285 284 284 284 284 284 284
285 285 285 286 286 286 286 287 287 287 287 287 287 287 287 287 287 287 287 286 286 286 287 287 287 287 286 286 286 287 287 288 288 289 289 290 290 290 290 290 290 291 291 290 290 290 289 289 289 289 289 288 288 287 287 287 287 287 287 287 287 286 286 285 285 285 285 285 285 285 285 285 285 285 285 285 285 284 284 284 284 284 284 284 284 284
285 285 285 286 286 286 287 287 287 287 287 287 287 287 287 287 287 287 287 286 286 286 286 286 286 286 285 284 284 285 286 286 287 288 288 289 289 289 290 289 290 290 290 290 289 289 289 289 288 288 288 288 288 288 287 287 287 287 287 287 287 287 286 286 285 285 285 285 285 285 285 285 285 285 285 284 284 284 284 284 284 284 284 284 283 283
285 285 285 286 286 286 286 286 286 287 287 287 286 286 287 287 287 287 286 286 286 286 286 286 286 285 284 284 284 284 285 285 286 287 287 288 288 289 289 289 289 289 289 289 289 289 288 288 288 288 288 288 288 288 288 287 287 287 287 287 287 286 286 286 285 285 285 285 284 284 284 284 284 284 284 284 284 283 283 283 283 283 283 283 283 283
285 285 285 286 286 286 286 286 286 286 286 286 286 286 286 286 287 287 286 286 286 286 286 286 286 285 284 284 284 284 284 284 285 285 286 286 287 288 288 288 288 288 288 288 288 288 288 288 288 288 288 288 288 288 288 287 287 287 286 286 286 285 285 285 285 284 284 284 284 284 284 284 284 283 283 283 283 283 283 283 283 283 283 283 283 283
285 285 285 285 285 285 285 285 286 286 286 286 286 286 286 286 286 286 286 286 286 286 285 285 285 285 284 284 284 284 283 283 284 284 285 285 286 286 287 287 287 288 288 287 287 287 287 287 287 288 288 287 287 287 287 287 287 286 286 285 285 285 285 284 284 284 284 284 284 284 283 283 283 283 282 282 282 282 283 283 283 283 283 283 283 283
285 285 285 285 285 285 285 285 285 285 285 285 286 286 286 286 286 286 286 286 286 286 285 285 284 284 284 284 283 283 283 283 283 283 284 284 285 285 286 286 286 286 287 287 287 287 287 287 287 287 287 287 286 286 286 286 286 286 285 285 285 285 284 284 284 283 283 283 283 283 282 282 282 282 282 282 282 282 282 282 282 283 283 283 283 283
285 285 285 285 285 285 285 285 285 285 285 285 286 286 286 286 286 286 286 286 286 285 285 284 284 284 284 283 283 283 283 283 283 283 283 284 284 284 285 285 285 286 286 286 286 286 286 286 286 286 286 286 286 285 285 285 285 285 285 284 284 284 283 283 283 283 282 282 282 282 282 281 281 281 281 281 281 282 282 282 282 282 282 282 282 282
285 285 285 285 285 285 285 285 285 285 285 285 286 286 286 286 286 286 286 286 286 285 285 284 284 284 283 283 283 283 283 283 283 283 283 283 283 284 284 284 285 285 285 285 285 285 285 285 285 285 284 284 285 285 284 284 284 284 284 284 283 283 282 282 282 282 281 281 281 281 281 281 281 281 281 281 281 281 281 282 282 282 282 282 282 282
285 285 285 285 285 285 285 285 285 285 285 285 286 286 286 286 286 286 286 285 285 285 284 284 284 284 283 283 283 283 283 283 283 283 283 283 283 283 283 284 284 284 284 284 284 284 284 283 283 283 283 283 283 283 283 284 283 283 283 283 282 282 282 281 281 281 281 281 281 281 281 281 281 281 281 281 281 281 281 281 281 281 281 281 281 281
Wind_Speed
13 18 24 29 32 32 31 34 34 32 30 29 29 30 31 32 33 33 34 35 36 36 36 36 36 36 35 35 35 35 35 36 36 37 38 38 37 37 37 37 37 37 36 36 35 34 34 33 33 33 33 33 32 32 31 31 30 30 30 30 30 31 31 31 31 31 30 28 26 24 22 21 21 21 22 22 22 21 21 21 22 23 24 25 26 27
10 13 18 25 29 31 30 32 33 32 30 29 28 28 29 29 30 31 32 33 34 35 36 36 36 36 35 35 35 35 35 35 35 35 35 35 35 36 36 36 37 37 36 36 35 35 34 34 34 33 33 33 33 32 32 31 31 30 30 30 30 30 30 30 30 29 28 27 26 25 24 23 23 23 23 23 23 23 23 23 23 24 24 25 26 27
8 9 12 17 22 25 26 28 30 31 30 29 27 27 27 28 28 29 30 31 33 34 35 36 36 35 35 35 35 35 35 35 35 35 35 34 34 34 35 35 36 36 36 36 35 35 34 34 34 34 34 34 33 33 32 32 31 31 30 30 29 29 29 29 28 28 27 27 26 26 25 25 24 24 25 25 24 24 25 25 25 26 26 27 28 29
9 7 7 10 13 17 20 23 25 27 28 28 27 26 26 26 27 28 29 30 31 32 33 34 34 34 34 34 35 35 35 35 35 35 35 34 33 33 33 34 34 35 35 35 35 34 34 34 34 34 34 34 34 33 32 32 31 31 30 29 29 28 28 27 27 27 26 26 27 27 27 26 26 26 26 26 25 25 25 25 25 26 26 27 27 28
6 6 5 6 6 9 14 17 20 23 26 27 26 25 25 25 26 26 27 28 28 29 29 30 31 32 32 32 33 33 33 33 33 33 33 33 32 31 31 31 31 32 32 32 33 32 32 32 32 32 32 32 32 32 31 31 30 30 29 29 28 27 27 26 26 26 26 26 27 27 27 27 27 27 27 27 26 25 25 24 24 25 25 25 26 26
3 4 6 6 6 8 10 13 16 20 24 25 25 24 24 24 23 23 23 23 23 25 25 26 27 27 28 28 28 28 29 29 29 29 29 29 29 28 28 28 28 29 29 29 29 29 29 29 30 30 30 30 30 30 29 29 29 29 28 27 27 26 26 26 26 26 26 26 27 27 28 28 28 28 28 28 27 26 25 25 24 24 24 24 24 25
4 4 6 7 9 9 10 11 13 17 20 23 23 23 22 22 21 20 20 20 20 21 22 23 23 23 24 24 23 24 24 25 25 25 25 25 24 24 24 24 24 25 25 26 26 26 26 27 27 27 27 27 27 27 27 27 27 27 27 26 26 26 26 26 26 26 26 26 27 27 27 28 28 28 28 28 28 27 26 26 25 25 25 24 24 25
4 6 7 8 10 10 10 10 11 13 16 20 22 22 20 20 19 19 19 19 19 19 20 20 21 21 21 20 20 20 21 22 22 22 21 21 20 20 19 19 19 20 20 21 22 22 23 24 24 24 25 25 25 25 25 26 26 26 26 26 26 26 26 26 26 26 26 27 27 27 27 27 28 28 28 28 28 28 27 27 27 27 27 26 26 26
7 7 8 10 11 11 9 8 8 10 12 15 18 20 21 20 19 19 19 19 18 19 19 20 20 20 20 20 20 20 20 21 21 21 20 20 19 18 18 17 16 17 16 17 17 18 19 20 20 21 22 22 23 23 24 24 25 25 25 25 26 26 26 27 27 27 27 27 27 27 27 27 28 28 28 28 28 29 29 29 29 29 29 29 29 29
9 9 10 11 11 11 11 9 7 7 9 12 15 18 20 20 20 19 18 17 17 18 19 19 20 20 20 20 20 21 21 22 21 21 21 21 20 19 19 18 17 16 16 15 15 15 15 16 17 17 18 19 20 21 21 22 23 24 24 24 25 25 25 26 26 26 26 26 26 26 26 26 27 27 27 27 28 28 28 29 29 30 30 30 30 31
9 10 11 12 12 12 12 11 9 8 9 11 13 14 16 17 18 17 15 14 15 17 18 19 20 20 20 20 21 22 23 23 22 22 22 22 22 21 20 19 18 17 16 15 14 13 13 14 14 14 14 15 16 17 18 18 19 20 21 21 22 22 22 22 22 22 22 23 23 22 22 23 23 24 24 24 24 24 25 25 26 25 25 25 26 27
9 10 10 11 12 13 13 13 11 10 9 10 10 10 10 12 15 16 15 14 14 16 17 19 20 21 21 21 21 22 23 24 24 24 24 23 22 22 21 21 19 18 17 16 14 13 12 12 11 11 11 11 11 12 12 13 14 15 15 16 17 17 17 18 18 18 19 19 19 19 20 20 20 20 21 21 20 19 18 18 18 16 15 15 15 15
10 10 10 11 12 13 14 14 12 9 8 7 7 6 7 10 13 16 17 16 16 17 19 20 20 20 20 21 22 22 23 24 25 25 24 23 23 22 22 21 20 19 18 18 17 15 14 13 12 11 10 9 9 9 9 9 10 10 11 11 12 13 14 14 15 15 16 16 16 16 16 17 16 16 16 16 16 14 13 13 13 12 12 12 11 11
10 10 10 10 10 12 14 15 12 9 7 6 6 8 10 13 16 18 18 17 17 19 21 21 20 19 19 20 21 22 23 24 24 24 24 24 23 23 22 22 22 21 20 21 21 19 17 17 16 14 12 11 11 10 10 10 10 10 11 11 11 12 12 12 13 13 13 13 14 13 13 14 14 14 13 13 13 12 12 13 13 13 14 16 17 19
10 9 7 6 7 10 13 14 13 10 9 10 11 13 15 17 18 19 18 16 17 20 22 21 20 18 18 19 21 22 22 23 24 24 24 24 24 23 23 24 24 23 23 24 24 23 21 20 20 19 17 16 15 14 13 13 13 13 13 13 14 14 14 14 14 14 14 14 14 14 13 14 14 14 14 14 15 16 16 17 16 17 21 23 24 25
11 9 5 4 7 10 13 14 13 12 12 14 15 17 18 17 17 18 17 16 17 18 17 16 14 12 12 16 19 21 21 23 24 25 25 24 23 24 23 25 26 26 25 25 25 24 23 23 22 22 21 20 19 18 18 18 17 17 17 17 17 17 17 18 18 17 17 17 17 16 16 16 17 17 18 18 20 21 21 21 22 23 25 26 26 25
10 9 7 6 7 10 14 16 15 15 15 15 16 17 17 17 17 17 17 17 15 13 12 11 7 4 5 10 15 19 22 23 24 25 25 22 22 23 23 26 28 28 26 25 25 24 23 23 22 22 21 21 21 21 21 21 20 20 19 19 19 19 19 19 19 19 19 19 19 19 19 19 20 20 20 21 21 21 21 20 20 20 19 19 18 18
9 9 9 8 9 12 15 16 17 17 17 16 15 14 14 15 16 17 16 16 13 10 9 9 7 4 3 4 7 13 22 23 24 25 24 21 21 22 24 27 28 29 27 26 25 24 23 22 22 21 20 20 20 20 21 21 21 20 20 20 20 19 19 19 19 19 19 19 19 18 18 18 18 18 18 17 17 16 15 14 13 12 12 11 11 11
9 10 10 10 12 14 16 17 18 19 19 17 16 14 13 13 14 15 14 13 11 10 9 8 7 7 7 8 11 17 21 22 23 24 21 19 19 21 25 26 28 29 28 26 25 24 23 23 22 21 20 19 19 19 19 19 19 19 19 19 19 18 18 18 17 17 16 16 16 16 15 15 15 14 14 14 13 13 12 12 12 11 12 12 12 12
8 9 10 12 14 15 15 17 19 21 22 21 19 17 14 14 14 13 12 10 9 9 9 9 8 8 10 13 16 19 21 22 23 22 19 17 17 19 23 25 27 28 27 26 25 24 23 23 22 21 20 19 19 18 18 18 18 18 18 17 17 17 16 16 15 15 15 14 14 14 14 14 13 13 13 13 13 13 13 13 13 13 13 13 14 14
9 8 10 13 14 14 13 15 19 22 23 23 21 18 16 15 14 12 11 10 9 9 10 9 9 11 14 16 17 18 20 21 20 18 16 14 15 18 21 24 26 26 26 24 23 23 22 22 21 20 20 19 18 17 17 17 17 17 17 16 16 16 15 15 15 14 14 14 14 14 13 13 13 13 13 13 14 14 13 13 13 14 14 14 14 15
10 10 11 13 14 14 15 18 20 21 22 22 21 19 17 16 14 13 12 12 11 11 12 12 13 16 18 18 17 18 19 20 20 17 13 11 12 16 21 23 24 25 24 23 22 22 22 21 21 19 18 18 18 18 17 17 16 16 16 15 15 15 14 14 14 14 13 13 13 13 13 14 14 14 14 14 14 14 14 13 13 13 13 13 13 14
13 13 13 13 14 16 18 19 19 19 19 20 20 20 18 17 16 15 15 15 15 16 17 19 20 20 20 19 18 19 19 20 20 18 13 7 8 13 20 23 23 23 23 21 21 21 22 22 21 19 17 16 17 17 17 17 16 16 15 15 14 14 14 14 14 14 14 14 14 14 14 14 14 14 14 14 14 14 14 13 13 12 12 12 12 12
14 14 14 14 15 16 17 18 18 18 18 18 18 18 18 18 18 18 18 19 21 22 22 22 21 19 18 18 17 17 17 17 16 15 12 8 9 13 19 22 23 22 21 21 21 21 22 22 21 20 18 16 15 15 16 17 17 16 16 15 15 15 15 15 15 15 15 15 15 15 15 15 15 15 15 14 14 14 13 13 12 12 12 11 11 11
14 14 14 14 14 15 16 16 16 16 17 17 18 18 18 18 19 19 20 21 23 23 23 21 17 14 14 14 14 13 12 12 14 15 15 10 10 14 18 21 22 20 19 20 20 21 22 22 22 20 19 17 15 14 14 15 16 16 16 16 16 16 16 16 16 16 16 16 15 15 15 15 15 15 14 14 13 13 12 12 12 12 11 11 11 11
15 15 15 15 15 16 16 16 16 16 16 17 18 18 19 19 20 20 20 21 21 21 19 15 11 9 10 11 11 10 10 10 15 19 19 14 11 12 16 20 21 20 19 19 19 20 20 21 21 20 19 18 17 15 13 13 14 15 16 16 17 17 16 16 16 15 15 15 15 15 15 14 14 14 13 13 12 12 12 11 11 11 11 11 11 10
19 19 18 18 18 18 17 17 16 16 16 16 17 18 19 21 21 21 18 18 19 18 15 10 6 6 8 8 8 9 11 13 16 21 23 20 15 12 14 18 20 21 20 18 17 17 18 18 18 18 18 18 17 16 14 14 14 14 15 15 16 16 15 15 15 15 15 15 15 14 14 14 13 13 12 12 11 11 10 10 10 10 10 10 10 10
23 22 21 21 20 19 18 17 16 16 15 15 16 17 18 20 20 17 15 17 18 16 14 9 6 4 4 5 7 10 13 15 17 21 23 21 15 12 15 18 20 21 20 17 16 16 16 16 15 15 16 16 17 17 16 15 14 14 14 14 14 14 14 14 14 14 14 14 14 13 13 13 12 11 11 10 10 9 9 9 9 9 9 9 9 9
25 24 24 23 22 21 20 19 17 16 15 15 15 15 16 17 17 17 18 20 19 16 13 12 10 8 7 8 9 11 13 15 17 20 21 18 14 14 18 20 20 21 19 15 13 13 13 13 13 12 13 13 14 15 16 16 16 15 14 14 14 14 14 13 13 13 13 12 12 11 11 10 10 10 10 10 9 9 9 8 8 8 8 8 8 8
25 24 24 23 23 22 22 21 19 17 16 15 15 15 15 15 16 17 19 20 18 16 14 13 12 12 12 10 8 6 7 11 15 17 18 15 13 14 19 19 19 19 16 10 7 6 8 9 10 10 10 11 12 14 15 15 15 15 14 14 13 13 13 13 12 12 11 10 10 9 9 9 9 9 10 10 9 9 9 8 8 8 8 8 7 7
24 24 23 22 22 22 21 21 20 18 17 17 16 16 16 15 15 16 16 17 17 17 16 15 14 14 13 7 3 1 2 8 13 15 15 13 13 15 19 18 16 15 11 7 3 1 2 4 6 8 9 10 12 13 13 14 14 14 14 14 13 13 12 11 10 10 10 9 9 9 9 9 9 9 9 9 9 9 9 8 7 7 7 7 7 6
24 23 23 22 21 20 20 20 19 19 18 18 18 18 17 17 16 15 15 15 16 17 17 17 16 15 12 7 4 3 3 9 12 13 13 13 14 17 19 17 15 12 9 6 5 4 3 2 4 7 10 11 12 12 12 13 13 13 13 13 13 12 10 9 9 10 10 9 9 9 9 9 9 8 8 8 8 8 8 7 6 6 5 5 5 5
23 23 22 21 20 20 19 19 19 19 19 19 19 18 18 17 16 15 15 14 15 16 17 17 16 14 12 11 9 7 8 12 12 11 11 13 14 16 17 16 14 11 9 7 7 7 5 5 6 9 10 11 12 12 12 12 12 12 11 12 12 11 10 8 8 9 9 9 8 8 7 7 7 7 6 6 6 6 6 5 5 4 4 4 4 4
21 21 21 21 20 20 20 19 19 19 19 19 18 18 17 16 16 15 15 15 15 15 16 16 16 15 13 12 11 11 12 13 13 10 10 13 14 15 16 16 14 12 10 8 8 9 9 10 11 10 10 12 12 12 12 12 12 11 10 10 11 10 9 8 7 8 7 7 7 6 6 5 5 5 5 5 5 5 4 4 4 3 3 3 2 2
20 20 20 20 20 19 19 19 19 19 19 19 18 17 17 16 16 15 15 15 16 16 15 15 14 14 15 14 13 12 13 14 13 10 9 13 16 17 17 15 15 14 11 10 9 9 9 11 12 12 10 10 11 12 11 11 11 11 10 9 9 9 8 7 7 6 6 5 5 5 4 4 4 4 4 4 4 4 4 3 3 3 3 2 2 2
19 18 18 19 19 19 19 19 19 19 19 19 18 17 17 17 16 16 16 16 16 16 15 14 13 13 14 16 17 17 15 15 13 11 9 12 16 18 16 15 15 15 12 11 11 11 10 10 11 12 11 8 7 8 10 11 11 10 10 9 8 8 7 6 5 5 4 4 4 4 3 3 3 3 4 4 4 4 4 3 3 3 3 3 3 2
17 17 17 17 17 17 18 18 18 18 18 19 18 18 18 18 18 17 17 17 17 16 16 15 15 15 15 17 19 19 17 16 14 12 10 11 14 17 18 16 15 15 13 13 13 13 13 11 10 10 9 7 6 7 9 12 12 11 10 9 8 7 6 5 4 3 3 3 3 3 3 3 3 3 3 3 3 3 3 3 3 3 3 3 3 2
16 16 16 16 16 17 17 18 18 18 19 19 19 19 19 19 19 19 18 18 18 18 18 18 18 18 18 19 19 18 17 15 14 12 11 11 13 17 19 18 15 14 13 15 16 16 15 12 8 6 6 6 7 9 12 13 12 11 10 9 8 7 6 4 3 2 2 2 2 2 2 2 2 2 2 2 2 2 3 3 3 4 4 4 3 3
16 15 15 15 16 16 17 17 17 18 19 20 20 20 21 21 21 20 20 20 19 19 20 21 21 21 20 20 19 18 16 15 13 12 11 11 13 16 19 18 16 14 13 14 16 17 16 13 10 7 7 8 9 11 13 14 13 12 11 9 8 7 6 5 4 3 3 3 3 3 2 1 1 1 1 2 2 3 3 4 4 4 4 3 3 2
15 15 15 15 16 17 17 18 18 19 20 20 21 21 22 22 22 22 22 22 21 22 22 22 23 23 22 21 20 18 17 15 14 13 12 12 14 16 17 17 16 15 14 13 13 14 15 14 14 13 14 12 12 12 13 13 13 13 11 8 6 5 5 5 4 5 5 4 4 4 3 1 1 1 1 2 3 3 4 4 4 3 4 3 3 2
15 16 16 16 17 18 18 18 19 19 20 21 21 21 22 22 23 23 23 23 23 23 23 24 24 24 23 22 20 18 17 16 14 14 14 14 14 15 16 17 16 15 14 13 12 12 13 14 15 15 16 16 16 15 14 14 13 12 11 8 7 7 6 5 5 5 5 5 4 3 2 2 2 2 2 1 2 2 3 3 3 3 3 3 3 2
15 16 17 17 18 18 18 19 19 19 20 20 20 20 20 21 22 23 23 23 22 22 23 23 24 24 23 22 20 18 17 16 15 14 14 14 15 16 16 16 16 15 15 14 13 13 13 14 15 16 17 17 16 15 14 14 12 10 9 9 9 9 7 6 5 5 5 4 4 3 3 3 3 2 2 1 1 2 3 3 3 3 2 2 2 2
17 18 18 19 19 19 19 19 19 19 19 19 19 18 18 18 19 21 21 21 20 20 21 22 23 23 22 21 20 19 17 16 14 14 14 14 15 15 16 15 15 15 15 15 16 16 15 14 14 15 15 16 16 16 15 15 13 10 9 8 9 9 7 7 6 6 5 5 5 5 5 4 4 3 2 1 1 2 3 2 2 2 2 2 2 3
19 19 19 19 19 19 19 19 18 18 19 18 17 17 17 17 18 20 20 20 19 19 19 20 21 21 21 19 19 19 18 16 15 14 14 14 14 15 15 15 14 14 14 16 17 18 17 16 15 14 14 15 16 17 17 16 14 12 10 8 7 7 7 7 7 7 6 6 5 5 5 4 3 2 1 2 2 2 1 1 1 1 2 2 3 3
21 20 19 18 18 18 18 18 18 18 18 18 17 17 16 17 18 19 20 19 19 18 18 19 18 17 16 15 16 17 17 17 16 15 14 14 13 14 14 14 14 13 14 14 16 16 17 17 16 15 14 15 16 17 16 15 14 13 11 9 8 8 8 9 8 8 7 6 5 5 4 3 2 2 2 2 1 0 1 0 0 1 2 3 3 4
19 18 18 18 18 18 17 17 17 18 18 18 17 17 17 17 18 18 19 18 17 16 16 16 16 15 13 13 14 15 15 16 16 16 14 13 13 12 12 12 12 12 13 14 15 15 16 16 16 16 16 16 16 15 14 14 13 13 12 10 9 10 10 10 9 8 7 6 5 3 2 2 2 3 3 2 1 2 2 2 2 2 2 3 4 4
19 18 18 18 18 18 17 17 17 17 17 17 17 17 17 17 17 17 17 16 16 15 15 17 17 16 14 14 13 14 14 14 15 16 15 14 13 13 12 12 11 11 12 13 14 15 15 15 14 15 16 16 15 14 13 12 11 11 11 10 10 10 11 10 9 7 5 4 3 2 2 2 3 2 2 1 2 2 3 3 2 1 1 2 3 4
19 18 18 18 18 18 17 17 17 17 17 17 17 17 16 16 16 16 15 15 15 16 16 17 17 16 15 14 14 14 15 14 15 15 16 15 15 14 13 12 12 12 12 12 13 14 15 14 13 13 13 13 14 14 13 12 11 10 10 9 9 9 9 8 7 6 5 3 2 2 2 2 1 1 0 1 1 1 2 2 2 1 1 1 2 3
19 19 19 19 19 18 17 17 17 17 17 17 17 16 16 15 15 15 15 15 15 16 16 17 16 15 14 14 14 14 15 15 15 15 15 15 14 14 13 13 13 13 13 14 14 14 14 14 13 12 11 11 12 14 14 13 12 11 10 9 9 9 8 7 6 4 3 2 1 0 1 2 2 2 2 3 3 3 3 3 3 3 2 1 1 2
19 19 19 19 19 19 18 18 18 18 17 17 17 16 15 15 15 15 15 16 16 17 17 18 17 16 14 13 13 14 14 14 14 13 13 13 13 13 13 13 13 14 15 15 14 14 14 13 13 12 11 10 10 11 12 12 12 11 11 10 9 9 8 7 6 4 2 2 1 2 3 4 4 4 4 4 4 4 4 3 3 2 1 0 1 2
19 19 20 20 19 19 19 19 19 18 18 18 17 16 16 16 16 16 16 17 18 19 18 18 17 16 14 13 13 13 13 14 14 13 12 12 12 11 12 12 14 14 14 12 10 10 10 9 8 8 10 10 9 8 8 9 10 11 10 10 9 8 7 7 5 4 3 2 2 3 3 4 4 4 4 4 4 4 4 4 3 2 2 2 3 4
Wind_Direction
200 194 195 197 198 198 199 200 199 199 199 200 201 202 203 205 206 208 209 210 211 212 213 214 216 216 217 217 218 220 222 225 227 228 229 230 230 230 230 230 230 230 230 230 230 230 230 230 231 232 233 234 234 234 235 235 236 236 237 238 238 239 240 240 241 242 242 242 243 246 251 254 257 259 261 261 262 262 261 259 257 254 252 251 252 254
206 192 191 196 199 200 200 200 199 199 198 199 200 200 201 201 202 204 206 208 210 211 213 214 215 215 216 217 218 219 221 223 225 226 228 230 231 231 231 231 230 230 230 230 230 230 230 230 230 231 232 233 233 234 234 234 235 236 237 238 238 239 240 241 241 241 241 241 241 244 247 251 254 256 258 258 257 256 255 255 254 252 251 251 252 253
202 187 187 191 195 197 198 198 199 200 200 199 198 197 197 197 198 200 202 204 207 210 211 213 214 215 216 217 218 219 220 221 223 225 227 228 230 230 230 230 230 230 229 229 229 229 229 229 230 231 232 232 233 233 233 234 234 235 237 238 239 240 241 242 242 242 241 240 240 241 243 246 249 253 255 255 253 251 250 250 250 250 251 252 253 254
191 179 183 182 183 185 187 189 192 195 196 195 194 194 194 193 193 195 197 199 202 205 208 210 212 214 215 216 218 218 219 220 222 223 225 226 227 228 229 229 229 229 228 228 229 229 229 229 230 230 231 232 233 233 233 233 234 235 237 238 239 240 241 242 242 242 241 241 240 241 242 243 246 249 253 255 254 252 249 249 249 249 250 252 254 255
166 166 172 173 163 160 167 173 178 183 186 187 187 188 188 188 188 188 190 193 195 196 199 203 206 208 210 212 214 215 216 217 219 220 222 223 225 226 227 227 228 228 228 228 228 229 229 230 230 231 232 232 233 233 233 234 234 235 236 237 238 239 240 241 241 241 241 241 241 241 241 242 245 248 252 255 256 256 255 253 252 252 252 253 254 255
102 134 156 155 136 126 139 148 159 167 172 174 177 179 180 180 180 178 177 179 181 184 186 189 193 197 200 203 205 206 207 209 210 212 214 217 219 221 222 224 225 225 226 226 227 228 228 229 230 231 231 232 232 233 233 233 234 234 235 236 237 237 238 239 239 240 240 241 241 242 242 243 245 248 251 254 256 258 258 257 256 256 256 256 257 257
94 119 142 141 138 134 131 133 142 152 158 159 162 166 168 168 167 164 161 162 164 166 169 172 176 180 183 186 189 191 193 195 197 199 202 205 207 210 212 214 216 218 219 220 221 222 223 224 226 227 228 228 229 230 230 231 232 233 233 234 235 235 236 237 237 238 239 240 241 242 243 244 246 248 251 253 255 257 258 258 258 258 258 258 259 259
110 117 122 121 126 132 132 133 138 146 153 153 151 150 150 151 150 148 148 149 148 147 148 151 154 157 159 162 166 171 175 178 180 182 185 187 189 191 194 197 199 202 204 206 209 211 213 216 217 219 221 222 224 225 226 227 229 230 231 232 233 234 235 235 236 237 238 239 240 242 243 245 247 249 251 253 255 256 257 257 257 258 258 259 260 261
124 116 110 111 114 114 111 119 134 146 152 154 150 145 139 136 135 134 134 133 131 131 132 133 134 135 138 142 146 151 156 159 160 161 163 165 167 168 170 171 175 179 182 186 190 194 198 202 206 209 212 215 218 220 222 224 226 227 228 230 231 233 234 235 236 237 238 239 241 242 244 246 249 250 252 254 255 256 257 257 257 258 259 259 261 262
130 122 111 110 117 116 102 96 111 140 150 152 151 148 143 135 129 124 119 116 118 122 125 125 122 121 124 129 133 136 139 143 144 145 145 146 147 150 151 153 156 160 163 167 170 175 181 187 193 198 203 208 212 216 219 222 224 226 228 229 231 232 234 235 236 237 238 239 241 243 244 246 248 250 252 253 255 256 257 258 259 260 262 262 263 264
134 129 118 110 115 120 112 102 105 123 138 139 138 138 140 138 134 126 114 106 106 111 115 117 116 115 115 117 123 127 130 131 132 133 134 136 136 137 139 141 142 144 146 149 152 157 166 173 180 186 193 200 206 211 216 220 224 226 228 229 230 231 232 233 234 235 235 236 237 238 240 242 244 246 247 249 251 253 256 258 260 262 263 262 262 262
147 141 130 120 116 115 114 109 109 116 124 123 117 114 118 129 135 133 120 112 106 104 104 107 110 112 112 112 114 119 123 123 122 122 124 126 128 128 129 130 131 131 132 133 133 136 143 152 160 168 175 183 191 198 204 210 215 219 221 222 223 224 225 226 227 227 228 228 229 230 233 235 237 239 241 243 244 246 248 250 250 249 247 245 244 241
155 149 139 131 125 120 120 118 117 120 125 124 117 111 113 122 129 128 119 114 111 109 105 102 102 105 109 111 111 112 114 114 115 116 116 115 116 117 119 119 118 119 120 119 118 117 120 125 131 136 144 153 161 169 175 181 186 191 194 197 202 206 208 210 211 213 214 215 216 218 222 224 226 227 229 230 230 230 227 222 218 214 210 206 190 169
156 151 145 140 135 131 130 130 131 136 144 147 141 132 128 126 124 120 112 109 110 111 108 102 97 97 102 107 110 111 111 110 111 111 108 106 107 110 112 111 110 110 111 109 106 104 107 109 111 112 118 125 133 140 146 151 156 159 161 164 170 174 177 180 184 187 189 192 194 197 201 205 207 207 206 205 203 196 186 181 180 177 167 158 145 133
159 155 152 150 145 140 137 137 140 145 153 156 150 141 134 130 126 122 116 114 115 114 110 103 98 96 98 105 110 112 112 111 109 105 101 100 104 108 110 108 107 106 105 102 99 99 102 103 103 103 106 110 115 121 126 130 133 136 139 141 143 145 147 149 152 155 158 162 166 170 175 179 181 180 178 175 171 165 158 157 156 148 137 132 126 121
162 158 156 154 147 143 142 141 141 144 149 153 153 149 143 139 137 134 131 131 129 125 118 111 102 95 96 108 114 115 114 111 107 103 99 97 101 107 111 109 104 101 100 98 96 96 99 100 100 101 102 104 108 111 114 116 119 121 123 125 126 127 128 128 130 132 134 137 140 142 145 147 148 148 147 145 142 139 136 133 130 126 121 118 116 113
163 159 154 149 144 143 143 143 144 146 149 151 153 153 152 151 149 146 144 143 142 139 135 131 126 112 106 108 113 116 117 111 106 103 99 95 98 106 112 110 104 99 98 96 94 95 96 97 98 100 101 104 106 109 109 111 112 114 115 116 117 118 118 119 120 121 121 123 124 126 127 128 128 128 128 127 126 124 122 119 117 115 114 112 110 110
163 159 153 148 145 145 145 144 146 148 150 150 151 154 155 155 154 152 150 149 149 149 147 142 138 137 138 126 121 121 120 114 107 103 98 94 96 104 110 110 106 102 99 95 94 93 93 94 95 97 100 104 106 108 109 110 111 112 113 114 115 115 116 116 117 118 118 119 120 121 122 122 123 123 123 123 123 123 122 122 123 124 125 126 127 129
161 159 154 151 149 148 148 149 149 149 149 150 150 149 148 150 151 151 150 151 151 150 146 138 131 127 124 125 129 128 124 119 112 105 99 94 95 101 106 107 105 101 98 95 94 94 94 93 94 95 98 101 103 105 107 109 110 112 113 114 115 116 116 117 118 119 120 121 122 123 125 125 126 127 128 130 131 133 135 137 140 142 144 145 147 149
152 154 154 152 149 147 148 152 154 153 152 153 152 149 144 145 147 147 148 149 149 145 137 128 120 115 117 123 130 132 129 125 117 109 102 96 94 97 102 103 101 98 95 94 95 95 95 95 95 96 97 98 100 102 104 107 109 111 112 113 114 115 116 117 118 119 120 121 123 124 125 126 128 129 132 134 136 139 141 144 145 147 148 149 150 152
136 140 151 151 148 145 147 151 153 154 154 154 152 147 145 147 148 148 149 146 138 129 122 115 113 117 122 124 130 134 134 130 122 113 106 96 89 91 97 99 98 96 93 93 95 97 97 95 95 94 95 98 100 102 104 106 107 109 110 111 112 113 114 115 116 117 118 119 119 120 121 123 124 126 129 131 134 137 139 142 143 145 147 148 150 151
128 132 143 147 144 140 140 145 149 152 154 154 150 146 149 151 152 151 148 140 130 121 116 113 117 121 124 125 129 134 135 131 126 119 109 97 85 87 95 99 98 95 92 94 97 99 99 97 94 93 95 99 103 104 105 107 108 109 109 110 111 112 113 114 115 116 117 117 118 118 119 119 120 122 123 126 128 131 133 136 138 140 142 145 147 149
127 131 139 143 140 137 137 140 144 148 151 152 151 151 154 155 154 150 145 139 131 124 120 119 120 121 121 122 124 127 129 127 124 118 108 99 86 91 99 102 100 97 95 99 102 104 103 101 98 96 95 99 103 106 107 108 109 109 110 110 111 111 112 113 114 115 116 117 118 118 118 119 119 120 121 122 123 125 127 129 131 133 136 138 142 145
125 129 134 138 138 137 137 137 140 144 147 149 151 154 156 156 153 149 145 140 134 128 123 121 117 112 110 113 116 118 121 123 123 117 105 101 101 104 106 106 103 99 99 105 108 109 108 106 105 104 101 98 101 107 109 110 111 111 110 110 110 110 110 111 112 113 114 116 117 118 118 119 119 120 120 121 122 123 125 128 130 133 136 138 141 143
121 124 128 131 134 134 134 135 139 143 147 150 152 153 154 152 148 144 141 138 132 127 123 117 109 101 100 103 105 107 116 124 126 121 110 107 109 111 113 112 108 104 104 109 113 112 109 107 108 109 107 103 102 103 107 110 112 113 112 112 110 109 109 109 109 111 112 113 114 115 117 117 119 119 120 121 122 124 127 131 136 140 143 146 147 149
113 115 119 122 124 126 128 131 138 145 150 154 155 155 153 148 142 135 130 129 128 126 122 115 109 103 102 97 93 97 113 127 132 129 122 118 116 117 118 118 115 110 108 110 112 111 108 106 107 110 109 107 105 105 106 109 111 112 112 112 111 109 108 107 107 107 108 109 110 111 112 114 115 117 119 121 123 127 130 135 139 143 147 149 150 152
102 104 107 110 114 117 122 128 135 143 150 155 157 157 155 148 139 131 127 131 133 132 128 124 119 112 105 94 89 98 116 128 133 133 131 126 122 121 124 122 119 115 110 108 108 108 107 105 106 108 109 110 109 108 108 109 110 110 110 110 109 108 108 107 108 108 107 107 108 108 109 109 111 114 116 119 123 127 131 135 138 141 144 146 147 148
98 99 100 101 104 108 113 119 126 134 141 147 151 154 155 149 140 134 138 143 142 138 133 132 132 125 114 110 105 108 118 125 132 136 136 128 122 125 133 129 125 119 112 106 106 108 108 106 106 108 111 113 114 113 112 111 111 110 110 110 110 110 111 112 113 113 110 110 110 109 109 108 109 111 113 115 119 123 128 132 135 138 141 143 144 145
102 102 101 100 101 103 105 108 113 120 128 135 142 148 152 149 144 142 146 147 144 140 137 136 135 131 126 121 113 108 113 122 134 140 140 128 123 130 138 135 130 124 117 109 103 100 98 101 105 109 113 116 118 118 117 116 114 112 112 112 113 114 116 116 116 115 114 113 112 111 108 107 107 107 108 109 112 115 119 124 129 132 135 137 137 138
108 107 106 104 105 107 108 109 111 114 121 129 136 142 146 146 144 145 148 149 147 142 139 137 135 132 130 124 113 102 108 128 141 145 142 131 128 137 142 140 135 131 125 117 101 81 78 91 100 107 115 120 122 122 121 119 118 117 117 116 116 116 117 118 117 115 114 112 110 108 105 104 105 105 106 107 109 110 113 117 122 126 128 129 129 129
109 108 107 108 110 113 114 115 116 118 122 128 134 137 138 138 139 143 148 152 151 146 142 140 139 140 140 137 130 115 127 151 151 150 148 135 136 145 148 147 145 143 138 135 133 108 92 89 99 109 118 124 126 125 124 122 121 122 123 122 119 117 118 121 120 117 114 111 109 107 106 106 107 108 109 110 111 111 112 114 118 122 123 124 122 119
108 108 108 109 112 114 115 116 118 121 124 128 131 133 134 134 137 141 146 152 153 150 146 144 144 145 144 135 121 123 146 160 158 156 156 141 141 148 152 153 153 152 146 142 137 135 136 137 123 122 122 125 127 127 127 126 126 128 129 128 125 123 125 128 126 122 117 114 112 111 110 110 110 111 112 114 115 116 116 118 120 123 124 122 118 114
106 106 107 109 110 110 111 114 116 119 121 124 126 128 131 134 136 139 143 146 148 147 145 144 143 140 130 114 104 108 131 150 155 157 158 148 144 148 155 155 153 149 142 133 127 124 121 129 131 127 124 125 127 128 130 131 132 133 135 134 131 130 132 133 131 126 123 120 117 115 113 112 112 112 114 115 116 118 121 124 127 129 129 127 123 120
102 103 103 104 105 105 107 110 112 114 116 118 120 124 128 131 134 136 138 139 140 141 141 142 143 139 127 113 104 107 123 143 150 152 156 157 151 149 155 155 152 145 134 122 111 108 110 120 125 125 121 123 127 130 131 134 136 138 140 140 137 135 135 135 133 128 125 123 120 117 114 113 112 112 111 111 111 112 116 123 130 133 133 135 137 138
100 99 100 100 100 100 102 105 107 109 111 113 115 119 122 126 129 132 133 135 136 137 138 140 143 143 138 129 121 119 126 141 147 149 157 164 157 152 153 155 154 148 135 124 114 109 111 120 126 128 124 121 124 130 135 139 141 143 145 145 141 137 136 135 133 129 127 125 120 117 114 114 113 111 106 103 102 103 109 116 125 134 140 149 160 172
99 97 97 98 98 98 98 100 103 105 107 109 112 116 119 122 124 127 129 131 132 132 133 134 136 139 139 135 130 128 132 141 145 149 159 168 163 156 152 155 156 151 138 128 124 123 125 127 131 132 130 123 123 133 142 148 151 151 148 147 144 141 139 138 135 131 127 124 120 116 115 115 115 110 103 99 98 100 103 111 119 130 140 153 166 182
98 96 97 99 99 99 99 101 103 104 106 108 111 114 117 119 121 123 124 126 127 127 126 125 125 126 129 130 129 130 134 140 144 148 155 165 167 161 154 154 155 152 143 135 132 131 131 132 133 133 130 130 135 145 153 155 156 154 149 149 149 148 147 146 141 132 123 117 112 110 112 112 111 105 96 94 93 92 95 102 110 118 127 137 148 162
97 97 98 100 102 103 103 102 104 106 108 109 111 114 117 118 119 120 120 121 122 122 121 118 117 118 121 124 126 129 133 137 140 144 151 160 166 163 155 151 150 150 149 144 141 139 137 137 137 135 135 137 143 152 158 160 157 154 152 156 159 159 157 158 157 151 138 127 121 118 115 109 98 84 71 67 66 68 74 83 90 94 100 108 115 124
97 97 98 101 103 104 105 105 107 110 113 114 115 117 118 118 118 117 117 116 116 116 116 114 113 113 115 118 121 124 128 131 135 140 145 153 159 160 154 149 146 146 147 147 147 146 144 143 145 145 140 137 141 151 161 164 162 159 158 161 166 170 172 176 178 176 170 161 154 148 144 129 98 56 34 28 34 45 55 61 59 57 58 63 69 78
100 100 101 103 105 107 108 110 112 114 116 116 117 117 117 116 115 113 113 113 112 112 112 112 112 111 112 114 116 119 122 126 129 133 137 142 149 152 151 146 143 141 141 142 146 149 149 147 146 146 145 142 142 148 156 162 165 166 163 158 157 163 169 172 175 176 177 176 172 167 162 147 105 61 35 25 28 35 40 41 36 28 23 19 19 22
105 105 105 107 109 110 110 113 115 116 117 117 116 115 114 113 111 109 109 109 108 109 110 111 110 109 109 110 111 113 116 119 122 126 130 134 140 144 146 143 140 138 138 139 142 147 149 146 144 144 145 144 144 146 151 157 163 166 163 155 147 145 144 141 146 155 163 168 171 169 155 125 93 76 65 43 26 19 19 17 11 6 5 7 11 13
110 110 112 113 113 114 115 116 117 117 118 116 113 111 111 111 111 110 108 107 106 107 109 109 107 104 101 101 103 106 108 111 115 120 126 131 136 139 140 140 139 138 139 137 135 135 138 140 141 142 143 143 141 142 146 152 155 157 157 150 143 135 129 126 127 131 139 144 147 146 139 129 123 123 131 140 356 356 358 358 356 356 356 4 12 15
115 116 117 118 118 119 120 119 118 117 116 113 110 110 111 113 113 112 110 108 107 107 108 108 107 103 97 94 94 97 101 106 111 117 122 128 133 136 137 138 139 141 141 135 128 124 126 128 132 137 140 141 140 140 143 147 149 149 150 149 144 139 133 133 130 127 126 130 137 143 149 154 161 170 185 231 311 327 334 340 349 358 3 1 359 359
117 118 119 120 122 123 122 119 117 116 115 112 111 111 113 115 115 114 111 110 109 110 109 109 106 102 95 91 90 91 96 103 109 114 119 125 130 134 136 137 140 143 143 135 127 122 121 121 124 130 136 138 137 137 139 142 143 143 144 147 146 141 135 135 135 135 137 141 148 156 165 170 178 195 241 286 301 308 321 343 357 358 348 343 337 336
118 118 119 121 122 122 119 117 117 117 116 114 114 114 115 116 117 115 113 111 110 110 110 110 106 100 93 92 92 92 93 97 102 107 113 120 127 133 136 137 139 141 140 135 130 124 119 116 119 125 132 133 132 131 133 134 133 133 133 135 134 127 123 126 133 142 149 152 156 163 171 181 206 250 281 290 291 248 131 121 302 297 298 301 306 313
119 119 120 122 121 119 117 118 118 117 115 115 115 116 117 117 116 115 114 113 111 110 111 111 107 102 100 99 99 96 93 93 94 98 103 109 117 124 129 132 134 135 133 131 128 125 120 116 119 124 127 125 124 125 129 131 130 127 126 128 128 126 125 128 136 145 153 157 161 171 196 246 282 293 294 279 215 167 161 173 209 248 269 279 288 296
120 121 121 121 120 118 118 119 118 116 113 112 114 116 117 116 115 113 113 113 112 111 111 109 105 102 103 104 103 101 98 95 93 95 98 103 107 111 115 118 122 125 126 126 124 121 117 116 119 124 125 121 118 118 125 132 133 129 127 130 132 132 132 135 141 151 161 169 178 204 249 281 294 292 274 226 183 173 172 175 183 204 251 275 287 292
122 122 122 122 120 119 118 118 117 115 112 112 113 115 115 115 114 113 113 114 114 113 110 106 102 100 100 100 101 102 101 99 97 96 96 98 101 104 107 110 112 115 118 120 120 119 117 116 116 118 122 124 122 120 123 129 131 131 132 136 138 138 137 140 147 159 172 185 206 239 274 301 325 6 101 127 131 133 140 141 138 130 99 318 307 303
122 122 123 123 121 120 119 119 118 115 113 113 113 113 113 113 113 114 115 117 117 116 113 108 106 104 102 100 101 102 102 101 100 99 97 97 99 101 105 109 112 115 116 117 118 118 118 117 115 112 111 121 128 130 129 131 132 134 136 139 140 139 137 139 144 155 165 177 200 312 8 29 42 49 52 54 49 47 54 74 87 87 76 44 344 307
121 122 123 122 121 120 121 120 119 117 116 115 115 114 114 113 115 117 119 120 120 118 116 114 112 109 108 106 105 104 102 102 101 100 101 103 104 105 108 114 118 120 119 117 116 114 110 106 105 106 108 111 121 131 136 138 141 142 141 139 139 137 134 132 133 133 129 113 73 50 47 47 47 44 39 33 29 27 30 39 55 65 59 12 285 280
120 121 121 121 121 121 121 120 119 118 118 117 117 115 114 113 115 118 120 121 120 118 118 116 114 112 113 112 110 108 107 105 103 102 106 111 114 117 121 125 128 128 125 123 120 114 105 95 87 87 94 105 114 123 134 144 149 148 142 140 139 138 132 128 126 122 115 98 78 62 53 48 44 38 30 21 15 11 10 6 358 346 327 303 291 285